Regional Weather Roundup
Issued by NWS

Home | Current Version | Previous Version | Graphics & Text | Print | Product List | Glossary On
Versions: 1 2 3 4 5 6 7 8 9 10 11 12 13 14 15 16 17 18 19 20 21 22 23 24 25 26 27 28 29 30 31 32 33 34 35 36 37 38 39 40 41 42 43 44 45 46 47 48 49 50
000
ASUS43 KMPX 231110
RWRMN
WEATHER ROUNDUP FOR MINNESOTA
NATIONAL WEATHER SERVICE TWIN CITIES/CHANHASSEN MN
500 AM CST THU FEB 23 2017


NOTE: "FAIR" INDICATES FEW OR NO CLOUDS BELOW 12,000 FEET WITH NO
SIGNIFICANT WEATHER AND/OR OBSTRUCTIONS TO VISIBILITY. N/A MEANS
CURRENT SKY AND/OR WEATHER CONDITIONS ARE NOT AVAILABLE.

MNZ060>063-068>070-231200-
   Twin Cities Metro

CITY           SKY/WX    TMP DP  RH WIND       PRES   REMARKS
TWIN CITIES    CLOUDY    34  27  75 N14       29.86R WCI  25
ST PAUL        CLOUDY    34  29  82 N10       29.87R WCI  26
CRYSTAL        PTCLDY    32  24  72 N10       29.86R WCI  24
BLAINE         MOCLDY    34  28  80 N14       29.86R WCI  24
LAKEVILLE      CLOUDY    34  30  86 N9        29.86R WCI  26
EDEN PRAIRIE   CLOUDY    33  26  75 N12       29.85R WCI  24
SOUTH ST PAUL  CLOUDY    35  29  80 N9G17     29.85R WCI  27
LAKE ELMO      CLOUDY    34  30  86 N10G16    29.85S WCI  26
$$
MNZ001>005-007-008-013>017-022>024-027-028-231200-
   Northwest Minnesota

CITY           SKY/WX    TMP DP  RH WIND       PRES   REMARKS
BEMIDJI        CLOUDY    23  18  81 N5        29.93R WCI  17
HALLOCK        CLOUDY    27  23  86 N8        29.99S WCI  18
ROSEAU         CLOUDY    25  18  74 N13       29.96S WCI  13
WARROAD        CLOUDY    23  16  74 N10       29.97R WCI  12
THIEF RVR FALL   N/A     22  18  85 MISG        N/A
CROOKSTON      CLOUDY    27  21  80 N7        30.01R WCI  19
FOSSTON        CLEAR     21  19  93 NW3       29.97R
DETROIT LAKES  CLEAR     27  23  86 NW6       29.97R WCI  20
MOORHEAD       CLEAR     28  23  80 N9        30.00R WCI  20
PARK RAPIDS    CLOUDY    26  20  77 NW3       29.93R
MAHNOMEN       FAIR      25  22  88 N7        29.96R WCI  17
$$
MNZ006-009>011-018-025>026-231200-
   North Central Minnesota

CITY           SKY/WX    TMP DP  RH WIND       PRES   REMARKS
BAUDETTE       MOCLDY    21  13  71 N10       29.94R WCI  10
FLAG ISLAND    CLOUDY    19  10  68 N24G30    29.96S WCI   2
INTL FALLS     CLOUDY    25  17  72 NW9       29.90F WCI  15
WASKISH        CLOUDY    25  18  74 N8        29.94R WCI  16
BIG FORK       CLOUDY    25  18  74 N5        29.91R WCI  19
LONGVILLE      CLOUDY    23  19  86 NW5       29.92R WCI  17
GRAND RAPIDS   CLOUDY    22  19  89 N14       29.92R WCI   9
CRANE LAKE     CLOUDY    25  18  74 N6        29.90S WCI  18
ORR            CLOUDY    25  16  68 CALM      29.87R
COOK           CLOUDY    25  19  80 NW7       29.88R WCI  17
WALKER         CLOUDY    23  18  83 N8        29.93R WCI  13
$$
MNZ012-019>021-037-231200-
   Northeast Minnesota

CITY           SKY/WX    TMP DP  RH WIND       PRES   REMARKS
DULUTH         PTCLDY    24  22  91 NW5       29.85R WCI  18
ELY            CLOUDY    27  21  80 NW3       29.84R
HIBBING        MOCLDY    23  21  92 NW13      29.88R WCI  11
EVELETH        CLOUDY    26  21  83 N8        29.87R WCI  17
DULUTH HARBOR  CLEAR     30  27  86 CALM      29.90R
TWO HARBORS    CLEAR     30  25  80 CALM      29.83R
SILVER BAY     CLOUDY    28  25  86 NW5       29.83R WCI  23
GRAND MARAIS     N/A     30  22  72 CALM      29.84S
G MARAIS ARPRT CLOUDY    25  18  74 NW6       29.79R WCI  18
$$
MNZ029>031-032-039>041-046>048-054>057-064-231200-
   West Central Minnesota

CITY           SKY/WX    TMP DP  RH WIND       PRES   REMARKS
FERGUS FALLS   CLEAR     27  27 100 N8        30.00S WCI  18
WHEATON        PTCLDY    28  25  86 NW7       29.99F WCI  21
MORRIS         PTCLDY    28  28 100 NW9       29.94S WCI  20
ALEXANDRIA     CLEAR     27  24  89 N8        29.93R WCI  19
ELBOW LAKE     FAIR      28  27  96 NW7       29.96S WCI  20
WADENA         MOCLDY    25  21  86 N8        29.95R WCI  16
GLENWOOD       CLEAR     28  25  86 N8        29.94R WCI  20
APPLETON       PTCLDY    30  28  93 N10       29.94S WCI  21
BENSON         PTCLDY    30  25  80 N9        29.95R WCI  22
ORTONVILLE     CLOUDY    28  25  86 N9        29.94F WCI  20
MADISON        CLOUDY    32  32 100 N15       29.93F WCI  22
WILLMAR        FAIR      30  27  86 N14       29.92R WCI  20
$$
MNZ033>034-036-042>043-049>051-058-059-231200-
   Central Minnesota

CITY           SKY/WX    TMP DP  RH WIND       PRES   REMARKS
ST CLOUD       CLEAR     28  25  88 N8        29.91R WCI  20
SAUK CENTRE    FAIR      26  23  87 N7        29.94R WCI  19
PAYNESVILLE    CLEAR     29  25  84 N9        29.92R WCI  21
AITKIN         PTCLDY    27  19  74 NW7       29.90R WCI  19
PINE RIVER     CLOUDY    25  21  86 N6        29.97R WCI  18
BRAINERD       PTCLDY    24  20  84 N10       29.93R WCI  14
STAPLES        CLOUDY    25  23  93 N5        29.94R WCI  19
LONG PRAIRIE   MOCLDY    27  23  86 NW8       29.93R WCI  18
LITTLE FALLS   CLEAR     27  23  86 NW3       29.94R
LITCHFIELD     PTCLDY    30  27  86 N16       29.91R WCI  19
BUFFALO        PTCLDY    30  26  83 N10       29.89R WCI  21
MAPLE LAKE     PTCLDY    30  28  90 N9        29.90R WCI  22
HUTCHINSON     CLEAR     32  28  84 N13G21    29.92R WCI  22
$$
MNZ037-044-045-052-053-231200-
   East Central Minnesota

CITY           SKY/WX    TMP DP  RH WIND       PRES   REMARKS
PRINCETON      CLEAR     28  27  93 NW10      29.91R WCI  19
MORA           CLEAR     28  23  80 N6        29.91R WCI  22
CAMBRIDGE      CLEAR     30  23  74 N6        29.88R WCI  24
RUSH CITY      CLEAR     28  25  86 N8        29.89R WCI  20
MOOSE LAKE     CLEAR     27  23  86 N6        29.87R WCI  20
HINCKLEY       FAIR      28  27  93 N7        29.88S WCI  21
CLOQUET        CLEAR     25  21  86 W6        29.87R WCI  18
MCGREGOR       CLOUDY    27  23  86 NW9       29.90R WCI  17
$$
MNZ071>073-080-081-089-090-097-098-231200-
   Southwest Minnesota

CITY           SKY/WX    TMP DP  RH WIND       PRES   REMARKS
MONTEVIDEO     CLOUDY    30  28  93 NE14      29.93F WCI  20
GRANITE FALLS  PTCLDY    32  30  92 N12       29.93S WCI  23
CANBY          CLOUDY    31  29  92 N9G17     29.94S WCI  23
MARSHALL       CLOUDY    30  28  92 N14       29.92R WCI  19
REDWOOD FALLS  MOCLDY    32  25  75 N9        29.92R WCI  24
OLIVIA         PTCLDY    32  28  86 N10G17    29.91R WCI  24
PIPESTONE      CLOUDY    30  25  80 NE18      29.86F WCI  18
WINDOM         PTCLDY    30  27  86 N14G25    29.89R WCI  20
WORTHINGTON    CLOUDY    30  28  93 N16G24    29.85S WCI  19
JACKSON          N/A     32  30  93 N12G23    29.87R WCI  23
TRACY          PTCLDY    32  29  90 N12       29.90F WCI  23
SLAYTON        MOCLDY    30  27  90 N16G23    29.87F WCI  18
$$
MNZ065>067-074>077-082>085-091>093-231200-
   South Central Minnesota

CITY           SKY/WX    TMP DP  RH WIND       PRES   REMARKS
MANKATO          N/A     33  29  85 N12       29.88R WCI  24
NEW ULM        PTCLDY    30  27  86 N5        29.89R WCI  25
ST JAMES       CLOUDY    32  30  93 NW14      29.89R WCI  22
FAIRMONT       CLOUDY    33  30  88 N14       29.88R WCI  23
GLENCOE        PTCLDY    32  30  91 N8        29.89R WCI  25
FARIBAULT      CLOUDY    36  30  80 N8        29.86R
OWATONNA       CLOUDY    36  30  80 N7        29.83F
WASECA         CLOUDY    34  32  93 N10       29.86S WCI  26
ALBERT LEA     CLOUDY    36  32  87 N12       29.80F
$$
MNZ078>079-086>088-094>096-231200-
   Southeast Minnesota

CITY           SKY/WX    TMP DP  RH WIND       PRES   REMARKS
ROCHESTER      CLOUDY    35  33  92 N12       29.81R WCI  27
RED WING       CLOUDY    37  30  75 N7        29.84R
STANTON        CLOUDY    36  31  83 N9        29.84R
DODGE CENTER   PTCLDY    34  32  93 VRB9      29.81S WCI  26
WINONA         CLOUDY    37  34  87 N6        29.82R
AUSTIN         CLOUDY    36  32  87 N10       29.79F
PRESTON        CLOUDY    35  32  90 N13       29.80R WCI  26
$$
ABBREVIATIONS USED IN REMARKS
   TC - TEMPERATURES IN CELSIUS
  WCI - WIND CHILL INDEX
   HX - HEAT INDEX
  VSB - VISIBILITY
$$



USA.gov is the U.S. government's official web portal to all federal, state and local government web resources and services.